Billings, MT

5:10 AM MST on December 10, 2016 (GMT -0700)
Billings Logan International

Weather History for KBIL - November, 2011

Change the Weather History Date:

Thursday, November 10, 2011

  Actual Average Record
Temperature  
Mean Temperature 40 °F 38 °F  
Max Temperature 48 °F 48 °F 68 °F (2007)
Min Temperature 32 °F 28 °F -12 °F (1986)
Degree Days  
Heating Degree Days 25 27  
Month to date heating degree days 302 247  
Since 1 July heating degree days 809 999  
Cooling Degree Days 0 0  
Month to date cooling degree days 0 0  
Year to date cooling degree days 734 636  
Moisture  
Dew Point 18 °F    
Average Humidity 42    
Maximum Humidity 54    
Minimum Humidity 29    
Precipitation  
Precipitation 0.00 in 0.02 in 0.35 in (1966)
Month to date precipitation 0.35 0.22  
Year to date precipitation 19.22 12.75  
Snow  
Snow 0.00 in 0.10 in 4.60 in (1966)
Month to date snowfall 4.0 1.7  
Since 1 July snowfall 4.0 6.9  
Since 1 September snowfall 4.0 6.9  
Snow Depth 0.00 in    
Sea Level Pressure  
Sea Level Pressure 30.03 in    
Wind  
Wind Speed 17 mph (WSW)    
Max Wind Speed 25 mph    
Max Gust Speed 33 mph    
Visibility 10 miles    
Events      
T = Trace of Precipitation, MM = Missing Value Source: NWS Daily Summary

Daily Weather History Graph

Daily Weather History Graph

Search for Another Location

Airport or City:

Trip Planner

Search our weather history database for the weather conditions in past years. The results will help you decide how hot, cold, wet, or windy it might be!

Date:

Astronomy

Nov. 10, 2011 Rise Set
Actual Time 7:06 AM MST 4:48 PM MST
Civil Twilight 6:34 AM MST 5:20 PM MST
Nautical Twilight 5:59 AM MST 5:56 PM MST
Astronomical Twilight 5:24 AM MST 6:31 PM MST
Moon 4:35 PM MST 7:04 AM MST
Length of Visible Light 10h 45m
Length of Day
9h 42m
Full, 100% of the Moon is Illuminated
Nov 10
Full
Nov 10
Full
Nov 18
Last Quarter
Nov 24
New
Dec 2
First Quarter

Hourly Weather History & Observations

Time (MST) Temp. Windchill Dew Point Humidity Pressure Visibility Wind Dir Wind Speed Gust Speed Precip Events Conditions
12:53 AM 34.0 °F 24.6 °F 17.1 °F 50% 30.28 in 10.0 mi WSW 13.8 mph - N/A   Clear
1:53 AM 35.6 °F 26.2 °F 17.6 °F 48% 30.20 in 10.0 mi WSW 15.0 mph - N/A   Partly Cloudy
2:53 AM 35.6 °F 27.1 °F 17.6 °F 48% 30.18 in 10.0 mi WSW 12.7 mph - N/A   Partly Cloudy
3:53 AM 36.0 °F 26.7 °F 17.1 °F 46% 30.22 in 10.0 mi WSW 15.0 mph - N/A   Clear
4:53 AM 36.0 °F 26.0 °F 17.1 °F 46% 30.20 in 10.0 mi WSW 17.3 mph - N/A   Clear
5:53 AM 35.6 °F 26.6 °F 17.6 °F 48% 30.12 in 10.0 mi WSW 13.8 mph - N/A   Partly Cloudy
6:53 AM 36.0 °F 26.0 °F 16.0 °F 44% 30.17 in 10.0 mi WSW 17.3 mph - N/A   Partly Cloudy
7:53 AM 36.0 °F 26.3 °F 17.1 °F 46% 30.16 in 10.0 mi WSW 16.1 mph - N/A   Partly Cloudy
8:53 AM 39.0 °F 29.6 °F 17.1 °F 41% 30.14 in 10.0 mi WSW 18.4 mph - N/A   Partly Cloudy
9:53 AM 44.6 °F 35.7 °F 17.6 °F 34% 30.04 in 10.0 mi WSW 24.2 mph 31.1 mph N/A   Partly Cloudy
10:53 AM 48.2 °F - 17.6 °F 30% 30.04 in 10.0 mi SW 16.1 mph 25.3 mph N/A   Scattered Clouds
11:53 AM 46.0 °F 38.0 °F 17.1 °F 31% 30.05 in 10.0 mi WSW 21.9 mph 28.8 mph N/A   Mostly Cloudy
12:53 PM 44.1 °F 36.2 °F 18.0 °F 35% 30.02 in 10.0 mi WSW 18.4 mph - N/A   Mostly Cloudy
1:53 PM 44.6 °F 36.4 °F 17.6 °F 34% 29.94 in 10.0 mi WSW 20.7 mph 26.5 mph N/A   Mostly Cloudy
2:53 PM 44.1 °F 36.8 °F 19.0 °F 37% 29.94 in 10.0 mi SW 16.1 mph - N/A   Mostly Cloudy
3:53 PM 46.0 °F 39.3 °F 19.0 °F 34% 29.93 in 10.0 mi SW 16.1 mph 25.3 mph N/A   Mostly Cloudy
4:53 PM 46.0 °F 38.5 °F 19.0 °F 34% 29.91 in 10.0 mi WSW 19.6 mph 27.6 mph N/A   Scattered Clouds
5:53 PM 46.0 °F 38.3 °F 19.0 °F 34% 29.89 in 10.0 mi WSW 20.7 mph - N/A   Scattered Clouds
6:53 PM 45.0 °F 37.1 °F 19.0 °F 36% 29.88 in 10.0 mi WSW 19.6 mph - N/A   Scattered Clouds
7:53 PM 44.6 °F 36.4 °F 19.4 °F 37% 29.85 in 10.0 mi WSW 20.7 mph - N/A   Scattered Clouds
8:53 PM 45.0 °F 38.5 °F 19.0 °F 36% 29.91 in 10.0 mi WSW 13.8 mph - N/A   Clear
9:53 PM 44.1 °F 35.9 °F 18.0 °F 35% 29.88 in 10.0 mi WSW 19.6 mph - N/A   Partly Cloudy
10:53 PM 43.0 °F 34.8 °F 19.0 °F 38% 29.88 in 10.0 mi WSW 18.4 mph - N/A   Clear
11:53 PM 43.0 °F 36.0 °F 18.0 °F 37% 29.88 in 10.0 mi WSW 13.8 mph - N/A   Clear